Theta_e
308 308 308 308 308 308 308 308 308 308 308 308 308 308 308 308 308 309 309 309 309 310 310 310 311 311 311 312 312 312 312 313 313 313 314 314 314 314 314 314 314 314 314 314 314 314 313 313 313 313 313 313 314 315 315 315 315 316 317 316 314 314 314 314 316 316 315 315 315 314 313 314 315 314 314 314 314 314 314 314 314 314 313 313 313 313 313 313
309 309 309 309 309 308 308 308 308 308 308 308 308 308 308 308 309 309 309 309 309 310 310 310 311 311 311 312 312 312 312 313 313 314 314 314 314 314 314 314 314 315 314 314 314 314 314 313 313 313 313 314 315 315 316 316 316 316 316 315 314 315 314 313 315 315 314 315 315 315 313 313 314 314 313 314 315 314 314 315 314 314 313 312 313 313 313 313
311 310 310 309 309 309 309 309 309 309 309 309 309 309 309 309 309 309 309 309 310 310 310 311 311 311 311 311 311 312 312 313 314 314 314 314 314 314 314 314 314 314 314 314 314 314 314 313 313 313 313 314 315 314 316 316 316 316 316 316 315 315 314 313 314 314 314 314 315 315 313 312 313 313 313 314 315 315 315 315 314 314 312 312 313 312 313 313
313 312 311 311 310 310 310 310 310 309 309 309 309 309 309 309 309 310 310 310 310 310 310 310 311 311 311 311 311 312 312 314 314 314 314 314 314 314 314 314 313 314 314 315 314 313 313 314 313 312 313 315 314 314 315 316 316 317 316 315 316 314 314 314 313 314 314 313 314 314 312 313 313 312 312 313 314 316 315 313 312 312 311 311 312 312 313 313
313 313 313 312 312 311 311 310 310 310 310 310 310 309 309 310 310 310 310 310 310 310 310 310 311 311 311 311 311 311 312 314 315 313 313 314 314 314 314 313 313 314 315 315 314 313 313 313 312 313 314 315 315 314 314 314 315 316 315 315 316 313 315 315 314 314 314 313 313 312 313 313 312 311 312 312 314 315 312 310 310 310 310 311 312 312 313 313
312 313 313 313 313 313 312 311 311 310 310 310 310 310 310 310 310 310 310 310 310 310 310 311 311 311 311 311 311 311 312 314 314 313 314 314 314 314 313 313 313 314 314 315 314 313 313 312 313 314 314 314 314 314 314 313 314 315 315 314 314 314 315 315 314 314 313 312 313 313 313 312 312 312 311 311 313 312 310 310 310 310 310 311 312 313 313 314
311 311 312 312 312 313 312 312 312 311 311 310 310 310 310 310 310 310 310 310 310 310 310 310 311 311 311 311 311 311 312 313 313 313 314 314 314 314 314 314 314 314 314 315 315 313 313 313 313 314 314 314 313 313 313 313 314 315 315 314 314 313 314 314 313 313 312 312 312 312 311 311 313 312 311 311 310 309 309 309 309 310 311 311 312 312 313 314
309 310 310 311 311 312 312 312 312 311 311 310 310 310 310 310 310 310 310 310 310 310 310 310 310 310 311 310 311 312 312 312 313 313 314 314 315 314 314 314 314 315 315 316 315 313 313 314 314 314 315 314 313 313 312 313 315 314 314 314 313 312 313 313 312 312 312 312 312 311 311 312 312 311 311 310 309 308 309 309 310 310 311 311 312 312 313 313
309 309 309 310 310 311 312 312 312 312 311 311 310 310 310 310 310 310 310 310 310 310 310 310 310 310 310 311 311 312 313 312 314 315 315 315 315 315 315 316 316 316 316 316 315 313 314 314 315 315 315 313 312 313 312 313 315 314 314 313 313 312 312 312 312 312 312 312 311 311 313 312 310 311 311 308 308 308 308 309 310 310 311 311 312 311 311 311
309 309 309 309 309 310 311 311 312 312 311 311 311 310 310 310 309 310 309 309 310 310 310 310 310 310 310 311 312 313 313 314 315 315 315 316 317 317 317 317 317 317 317 316 315 314 314 315 315 315 315 313 312 313 311 313 313 312 312 312 312 313 312 312 312 312 311 312 311 312 314 311 309 312 312 308 307 308 308 310 310 310 311 311 311 310 310 310
309 309 309 309 309 309 310 311 311 311 311 311 311 310 310 310 310 309 309 309 309 309 310 310 310 310 311 312 313 314 314 314 315 314 315 316 317 317 318 318 317 317 317 316 315 314 313 315 315 315 315 313 313 312 311 312 312 311 312 312 313 313 313 313 312 311 311 312 310 311 312 311 310 312 311 308 307 308 309 310 310 311 311 310 310 310 310 310
309 309 308 308 308 308 309 310 311 311 311 311 311 310 310 309 309 309 309 309 310 310 310 310 310 311 312 313 313 313 313 314 314 314 315 315 316 317 317 317 317 316 316 316 315 314 314 315 315 315 315 314 314 313 312 311 311 312 312 314 314 314 315 313 311 310 311 312 311 310 312 312 311 311 310 308 307 308 310 310 310 310 310 309 309 309 309 310
308 308 308 308 308 308 308 309 310 311 311 311 311 310 309 309 309 309 309 309 310 309 310 310 311 312 313 314 313 313 313 314 315 315 315 315 315 316 316 316 315 314 315 316 315 314 314 315 315 315 314 314 314 313 312 311 311 313 312 312 315 316 316 312 310 311 311 312 310 311 315 315 311 310 310 310 309 309 310 310 310 310 309 309 309 309 309 309
308 308 308 308 307 307 307 308 309 310 310 311 310 310 309 309 309 309 309 309 309 310 310 311 313 313 314 314 314 314 314 315 315 315 316 316 315 315 315 315 314 314 314 315 315 314 315 315 315 314 313 313 313 312 312 312 312 313 312 312 314 317 316 313 311 311 313 312 310 311 316 316 311 309 309 310 310 310 310 309 308 309 308 308 308 308 309 309
308 308 308 308 307 307 307 308 309 309 310 310 309 309 309 308 309 309 309 309 310 311 312 313 314 314 315 315 314 314 315 315 315 316 315 316 315 314 314 314 314 314 314 314 314 314 315 315 314 314 313 312 312 313 314 314 313 312 314 316 316 316 316 315 310 310 313 311 310 312 317 317 312 309 309 309 310 310 309 308 307 307 307 308 308 308 308 309
309 309 309 308 308 307 307 307 308 308 309 309 308 308 308 308 308 309 309 310 312 313 313 314 314 314 315 316 315 315 316 316 316 316 316 316 315 314 314 314 314 314 314 314 314 314 314 314 314 313 312 312 313 314 315 315 315 313 314 317 317 316 316 316 311 309 311 311 312 313 316 318 313 309 309 309 309 309 309 307 306 306 306 306 307 307 307 308
309 309 309 309 308 307 306 307 307 308 308 307 308 307 308 308 309 310 311 312 313 314 314 314 315 315 316 315 314 315 316 316 316 316 316 316 315 314 314 314 314 314 314 314 314 314 314 314 313 313 313 313 313 314 316 316 317 316 315 316 316 315 315 315 314 311 310 312 313 312 313 316 313 309 308 308 308 309 308 307 305 305 305 305 306 306 307 307
309 309 309 308 307 307 306 306 307 307 307 307 307 308 309 310 311 312 313 314 314 314 314 315 315 315 316 316 315 315 316 316 316 316 316 316 315 314 314 314 314 314 314 314 314 314 314 313 313 314 314 312 313 315 316 317 318 317 316 316 315 314 313 314 315 312 311 312 314 313 313 315 314 311 308 307 307 308 308 306 305 304 304 304 305 305 306 307
309 308 308 307 306 306 306 306 306 306 306 307 308 309 310 312 313 314 314 314 315 315 315 315 315 315 316 316 316 316 316 316 316 316 316 316 315 314 314 314 314 314 314 314 315 313 314 314 314 315 316 314 314 315 317 318 317 317 316 316 316 315 314 314 314 311 311 313 314 314 314 315 316 313 309 307 306 307 307 305 305 304 303 303 303 304 305 306
308 307 307 307 306 306 306 306 306 306 307 307 309 311 313 314 315 315 314 315 315 314 315 316 315 315 316 316 316 316 316 316 316 316 316 316 315 315 314 314 314 314 314 315 316 313 313 315 316 317 317 316 315 315 316 315 314 314 315 315 315 316 315 315 313 310 310 312 314 314 314 314 315 313 309 307 307 307 306 306 305 304 303 302 302 303 304 305
307 307 307 307 307 306 306 306 306 306 307 309 311 312 314 315 316 316 316 316 315 314 315 315 315 316 316 316 317 317 316 316 315 315 316 316 315 315 314 314 314 314 313 314 314 311 312 316 317 317 316 314 314 314 313 312 312 313 314 315 315 315 315 314 312 310 309 312 314 313 312 313 314 312 308 307 307 307 306 306 304 303 302 302 301 302 303 305
307 307 307 307 307 307 307 307 307 307 309 311 312 313 314 315 315 316 317 317 317 317 317 317 316 316 316 316 317 316 316 316 315 316 316 315 315 315 314 313 314 315 312 311 313 313 313 316 317 315 313 311 311 311 311 311 312 312 313 314 315 315 315 314 312 309 309 311 314 313 312 314 313 309 307 306 306 305 303 303 303 302 302 301 301 301 302 304
308 308 308 308 308 309 310 309 309 309 310 311 312 313 315 316 317 317 317 318 319 318 318 318 317 317 317 316 317 316 316 317 316 316 316 315 315 314 314 314 314 314 312 312 315 316 316 316 315 314 311 311 311 309 310 311 312 313 313 314 316 315 315 317 313 309 309 310 312 312 312 315 313 307 305 305 304 303 301 301 301 301 301 301 301 302 302 303
309 309 309 309 309 311 312 312 312 311 310 312 312 313 315 317 318 318 318 319 319 318 317 318 318 318 318 317 317 316 316 317 317 317 316 315 314 313 314 314 313 313 313 313 315 317 317 314 312 312 311 312 313 311 310 313 314 314 314 314 317 315 315 317 314 311 310 310 310 311 314 317 314 310 308 304 302 303 301 301 301 300 300 301 301 302 302 302
312 311 311 311 312 314 314 314 314 313 311 312 313 314 315 316 317 317 318 319 319 318 317 317 317 318 318 318 318 317 316 316 317 317 316 315 315 314 313 313 313 314 314 313 313 316 317 313 311 312 311 312 314 313 313 315 317 316 315 314 315 315 315 315 313 312 314 315 311 311 317 319 314 312 310 305 304 303 302 302 302 301 300 300 300 300 301 302
315 314 313 315 317 317 316 315 315 313 313 314 314 315 316 316 317 316 316 318 319 318 316 317 318 318 318 318 318 317 317 317 316 317 317 315 315 315 314 313 313 315 314 312 313 315 314 311 311 314 313 313 314 314 314 314 317 318 316 314 313 314 315 314 313 313 317 318 312 309 317 319 316 315 311 306 305 304 303 303 302 301 300 300 300 300 300 301
316 316 314 316 319 319 317 316 315 314 314 315 315 316 317 317 317 315 315 319 321 318 317 316 317 317 317 317 317 317 318 317 315 316 316 315 314 314 315 314 313 313 312 313 317 316 312 310 312 314 315 314 315 315 314 313 316 318 315 313 313 313 314 314 313 315 316 316 313 311 314 317 318 316 309 306 307 305 303 303 302 302 301 300 300 300 300 301
316 316 315 316 317 318 316 316 316 316 316 316 316 317 317 317 316 315 317 322 321 318 317 315 314 315 316 316 317 316 315 315 316 316 314 314 314 314 315 315 314 313 311 314 320 316 312 313 313 313 314 315 316 316 313 313 316 316 311 310 311 312 313 313 313 315 314 314 316 315 313 315 319 315 308 306 308 307 305 304 303 302 301 301 300 300 300 301
316 316 315 315 317 316 315 315 316 316 316 317 317 318 318 317 316 316 318 321 320 317 315 315 313 313 315 315 315 313 311 312 314 314 312 313 313 313 314 314 314 313 311 313 319 316 311 311 312 313 315 315 314 311 310 314 316 312 308 309 310 310 311 312 313 314 312 314 319 317 314 316 319 317 312 308 309 310 307 305 304 303 302 301 300 300 301 301
316 316 316 315 317 316 314 315 316 316 317 318 318 319 318 316 316 320 321 322 322 317 313 313 313 313 314 315 314 311 309 310 311 311 311 312 312 312 313 313 312 313 312 312 314 313 309 307 309 312 313 312 309 306 306 311 311 308 310 311 311 311 310 311 312 312 314 317 317 315 314 315 318 319 316 312 310 310 308 305 304 303 302 301 300 300 300 301
316 315 317 316 317 316 315 315 316 317 318 319 320 319 318 317 318 323 323 322 321 316 312 312 311 312 315 316 316 312 309 309 309 311 311 310 311 311 312 314 313 313 314 314 314 312 309 309 310 310 309 308 309 307 305 306 306 309 313 313 314 313 312 312 312 312 317 320 314 309 310 313 316 318 315 312 308 307 308 306 303 303 303 301 300 300 300 301
316 315 316 316 317 317 316 315 315 317 319 320 321 318 318 319 321 324 321 318 319 317 315 314 311 312 314 316 316 312 309 310 310 311 311 311 312 312 313 316 316 317 318 317 316 314 312 313 311 310 308 308 311 311 308 307 307 310 312 313 317 317 315 316 316 314 318 317 310 307 309 312 315 316 313 310 307 306 307 306 304 304 303 302 301 300 300 301
317 316 316 316 316 316 315 315 315 317 320 321 319 318 319 322 323 322 319 319 320 316 314 313 311 311 314 315 314 311 310 311 310 310 310 311 313 313 314 314 314 317 319 317 317 316 316 315 311 311 310 309 312 314 313 311 309 311 314 315 319 319 318 320 317 315 317 314 307 306 310 313 315 314 311 308 306 304 304 305 305 304 303 302 301 300 301 301
317 316 317 316 315 315 314 315 316 318 320 320 318 318 321 322 323 322 320 320 318 313 311 312 310 311 314 315 313 311 312 312 309 310 311 311 313 314 314 312 311 314 315 316 317 317 320 318 313 313 312 310 313 314 314 314 311 312 313 315 316 317 319 321 318 317 317 313 308 307 310 315 316 312 305 303 302 301 301 302 303 304 303 302 301 300 301 300
317 317 317 316 316 316 315 315 317 318 320 319 318 320 322 322 322 322 321 320 317 313 310 310 311 313 314 313 310 310 313 313 310 310 311 312 313 314 315 313 310 311 314 317 317 315 319 318 312 309 307 308 312 311 311 313 313 311 310 313 315 315 316 314 313 313 313 313 311 310 312 314 312 306 301 301 302 300 301 301 301 303 302 302 301 300 300 300
317 317 317 317 316 316 315 316 317 319 320 319 319 321 322 322 322 322 321 319 317 314 311 311 313 315 315 314 311 310 312 312 310 311 312 312 313 313 314 314 312 311 314 317 316 314 316 316 310 307 306 306 308 308 308 312 314 311 310 313 313 312 313 312 310 308 309 315 316 312 313 313 310 308 303 301 303 302 301 301 302 302 302 301 300 300 300 300
317 317 317 317 316 316 315 315 317 319 319 318 320 321 322 322 321 322 320 317 314 313 313 315 315 315 315 315 313 312 312 312 311 312 313 312 313 313 312 313 312 311 313 314 315 315 316 315 310 309 310 306 304 306 307 307 310 311 312 314 312 310 312 313 315 313 312 317 316 312 314 314 314 313 306 302 304 304 302 302 302 302 301 301 300 300 300 300
318 318 317 317 316 316 315 315 317 319 318 318 320 321 322 322 318 317 316 313 313 313 316 318 318 316 316 316 315 312 313 314 311 312 313 313 314 314 312 312 312 311 312 312 313 314 315 316 312 307 309 307 304 308 310 307 307 309 311 311 311 314 314 313 315 316 316 317 315 312 312 312 314 314 309 307 307 306 304 302 301 302 301 301 301 301 300 300
318 317 317 317 316 316 315 316 317 318 317 319 321 320 321 320 315 313 314 313 315 315 316 318 318 317 316 316 315 313 312 314 312 312 314 313 314 313 311 313 313 311 311 310 312 313 312 316 315 308 307 308 306 309 313 310 307 307 308 309 310 312 314 313 313 314 316 316 315 313 312 312 314 314 312 312 310 308 305 302 302 303 302 301 301 301 301 300
318 317 316 316 317 316 316 316 316 317 316 318 319 318 318 318 314 312 313 315 317 317 318 321 320 318 317 315 315 313 313 314 312 312 315 314 314 313 310 312 313 310 309 309 312 313 312 314 315 310 307 308 310 311 313 313 310 309 310 311 310 310 310 312 312 311 313 315 315 315 315 314 312 311 312 312 310 308 307 304 304 304 302 302 302 301 301 300
317 317 316 316 317 317 316 316 316 316 317 317 317 316 315 315 314 313 313 314 315 315 316 319 320 320 318 315 315 315 314 314 312 312 315 313 313 315 311 310 311 310 308 309 311 313 313 313 314 312 310 311 312 310 308 310 311 311 312 312 312 312 311 313 314 311 310 313 314 314 315 315 310 305 307 307 306 307 307 306 305 304 303 302 302 302 301 300
317 317 315 315 317 317 316 316 315 315 317 317 316 315 314 314 314 313 313 313 314 314 314 316 318 319 320 318 317 316 316 316 313 313 315 314 315 316 312 307 309 310 310 311 312 312 311 312 313 313 311 311 309 305 302 304 307 310 311 312 313 313 313 315 316 312 310 311 311 311 314 314 308 303 304 304 304 305 305 305 306 304 303 303 302 301 301 300
316 315 314 314 316 316 316 316 315 315 316 315 314 314 313 313 313 313 313 313 314 314 315 316 316 316 317 317 317 316 316 317 315 314 317 317 314 311 307 306 308 310 311 312 313 311 310 313 314 313 311 309 307 305 304 304 306 310 311 310 312 313 314 315 314 312 312 312 311 311 314 314 308 304 303 302 302 302 303 304 305 303 302 302 301 301 300 300
314 312 311 313 315 316 317 316 314 314 314 312 312 313 312 312 312 313 313 314 314 313 315 316 314 315 315 314 315 316 316 316 316 315 316 317 313 307 305 307 308 310 311 312 312 312 312 314 314 313 313 312 311 310 309 307 308 311 311 309 311 313 313 313 312 310 312 314 313 313 314 313 309 306 303 301 302 303 302 302 302 302 302 302 301 300 300 300
312 310 309 311 312 313 314 314 313 313 313 312 313 313 312 311 310 311 312 313 311 311 314 314 312 312 313 313 314 314 314 315 316 314 314 313 310 306 305 307 308 309 309 309 310 311 313 315 315 315 316 316 316 315 313 312 311 310 310 309 310 311 312 312 312 312 313 314 313 313 314 312 309 306 305 303 302 303 302 300 301 302 302 303 302 301 301 301
312 311 308 308 309 309 310 310 311 312 312 312 312 311 312 311 308 308 311 311 309 309 310 310 309 311 312 312 314 313 312 313 314 313 313 313 310 305 304 306 308 307 308 308 309 311 314 315 315 315 316 316 315 313 312 313 313 311 311 310 310 310 311 312 313 313 314 312 312 313 313 313 310 307 307 306 305 304 302 300 300 302 304 303 302 301 301 301
313 311 308 307 308 307 307 307 309 311 311 311 310 309 310 310 308 308 309 309 309 308 308 308 308 310 311 311 312 312 310 310 311 311 312 312 310 306 304 306 307 307 308 308 309 312 315 314 314 315 314 314 313 312 312 314 314 313 313 312 310 309 310 313 313 313 314 313 313 313 312 313 312 309 308 308 308 306 303 301 302 304 306 304 302 301 301 301
312 310 308 309 310 309 308 308 309 310 310 310 310 308 308 309 308 308 307 306 307 308 308 308 307 308 309 309 311 311 310 310 310 310 310 310 310 309 308 307 306 306 308 308 308 311 314 313 313 313 313 312 312 310 310 311 312 312 312 312 310 308 310 312 312 312 313 314 314 312 310 312 312 309 309 308 308 307 306 305 306 306 306 305 303 302 302 302
308 307 306 307 309 309 308 308 308 309 310 310 308 307 308 309 308 307 306 305 306 306 307 309 308 307 307 307 310 311 310 310 311 310 309 309 309 309 310 310 307 304 307 309 309 309 312 313 312 312 313 312 308 307 308 309 310 311 310 310 310 309 309 310 311 311 312 312 313 311 310 310 310 309 309 308 308 307 306 306 306 305 305 305 304 304 304 303
306 306 306 305 306 306 306 307 307 308 309 309 308 307 307 309 308 306 305 306 307 306 306 309 308 307 306 306 308 310 310 309 311 310 308 308 308 308 309 310 309 306 306 310 309 308 310 312 310 310 312 311 306 305 307 308 309 311 310 310 309 308 308 309 310 311 311 311 311 310 310 310 308 307 308 307 306 306 304 304 305 305 305 305 304 304 304 303
306 306 306 306 305 304 305 305 306 307 308 308 308 307 307 308 307 306 306 306 307 307 306 307 308 306 306 306 307 308 308 308 309 309 307 308 309 308 308 309 310 308 307 308 309 309 309 309 308 309 313 311 305 304 306 306 307 309 309 309 308 307 308 309 310 310 310 310 310 310 311 310 307 306 306 304 304 304 304 304 304 304 304 303 303 303 303 303
305 305 305 306 306 304 303 304 305 307 308 307 307 307 307 307 306 307 308 306 305 307 307 307 307 306 306 307 307 308 308 307 307 307 307 308 308 308 308 308 308 309 308 306 307 307 308 308 308 309 312 309 303 302 306 307 308 309 309 309 308 307 307 308 308 309 309 309 310 310 310 309 306 304 304 304 303 303 304 304 303 303 303 302 302 302 302 302
Wind_Speed
7 7 7 7 7 7 7 7 7 6 6 6 6 5 5 5 5 5 5 4 4 3 3 2 1 1 2 4 5 7 7 9 10 12 12 10 7 3 2 6 6 5 4 5 5 4 4 4 5 5 6 5 6 6 6 6 5 2 0 0 1 1 1 3 4 3 1 2 3 1 3 2 2 4 7 9 6 5 10 8 3 1 2 3 5 10 12 11
6 6 6 6 6 6 6 6 6 5 5 5 5 4 4 4 4 4 3 3 3 2 2 2 2 3 4 5 6 7 7 9 11 11 8 4 2 6 8 8 7 7 7 8 6 5 4 3 3 4 4 4 5 5 4 5 4 2 0 0 1 2 1 2 2 2 2 1 1 2 2 2 3 4 6 7 6 5 7 3 3 4 3 3 6 6 6 6
5 5 5 4 4 4 4 5 4 4 4 4 4 4 4 3 3 3 3 3 3 3 3 3 3 4 5 6 7 7 8 10 8 5 5 6 9 11 9 6 6 7 8 9 8 5 3 2 2 3 4 5 4 4 4 3 3 1 1 0 2 2 1 4 4 2 3 3 3 2 3 4 3 3 5 7 10 7 3 3 2 2 2 7 6 2 3 4
5 4 4 4 4 3 3 3 4 4 4 4 4 4 4 4 4 4 4 3 3 4 4 4 5 5 5 7 8 7 8 8 2 5 7 8 9 8 5 3 4 7 9 10 9 5 3 2 2 4 4 4 3 2 3 3 2 1 1 1 4 3 2 4 6 4 4 4 3 2 4 4 1 3 5 5 8 4 2 4 5 5 8 10 5 1 2 3
6 5 5 4 4 4 4 4 4 4 4 4 4 4 4 4 4 4 4 4 4 5 5 5 6 6 7 7 7 7 7 3 3 5 4 4 3 2 1 3 5 7 9 10 9 5 2 2 3 4 3 3 2 1 2 3 2 2 1 2 5 4 2 1 4 4 4 5 4 4 4 3 3 4 4 4 5 4 4 9 9 9 9 6 3 1 2 3
7 7 7 6 6 6 6 5 5 5 5 5 5 5 5 5 5 5 5 5 5 6 6 6 6 7 7 7 8 7 5 2 2 2 2 3 5 6 7 9 9 9 10 11 8 4 1 2 2 3 3 2 1 2 2 2 1 1 1 2 4 5 3 1 3 5 5 5 4 5 5 5 5 3 2 3 4 4 8 8 6 4 4 2 2 2 4 5
9 8 8 8 7 7 8 7 7 7 7 6 6 6 7 6 6 6 7 6 7 7 7 7 7 8 8 8 8 7 6 5 5 6 7 8 9 10 12 12 12 12 11 10 6 3 1 0 1 2 2 1 1 1 2 2 1 2 0 3 4 6 5 4 5 7 8 9 7 8 8 6 5 3 2 2 3 6 4 2 1 2 1 1 2 3 5 6
10 10 10 9 9 9 9 9 9 9 8 8 8 8 8 8 8 8 8 8 8 8 8 8 8 8 8 8 7 7 7 8 7 7 8 9 11 12 13 13 13 12 11 8 5 4 2 1 0 1 0 1 1 3 2 1 3 2 1 2 2 4 6 8 10 12 13 13 12 10 8 6 4 2 3 3 2 4 1 1 2 2 1 1 2 3 3 3
12 12 12 11 11 10 10 10 10 10 10 10 10 9 9 9 9 9 9 9 9 9 9 9 9 9 8 8 7 6 6 7 6 5 6 7 8 10 11 12 12 11 10 8 5 5 3 2 1 1 0 2 3 3 2 2 1 1 0 0 2 5 7 10 12 12 12 12 10 7 5 3 4 5 5 3 1 2 3 4 3 2 3 2 2 1 2 2
14 14 14 13 13 12 12 12 12 12 11 11 11 11 10 10 10 10 10 10 10 10 9 9 9 8 8 8 6 5 5 6 5 5 5 5 6 7 8 8 9 9 8 6 5 5 4 3 1 1 0 2 3 3 3 2 1 2 1 4 6 8 9 11 10 8 9 10 9 7 3 4 6 5 3 3 1 3 4 4 3 2 2 2 3 4 4 4
16 15 15 15 15 14 14 13 13 13 13 13 12 12 11 11 11 10 10 10 10 10 9 9 9 8 8 7 6 6 6 7 6 7 7 7 7 8 7 7 6 6 6 6 6 6 5 4 1 1 0 2 4 3 3 2 1 2 2 6 7 8 10 9 7 5 5 5 6 7 3 4 5 4 3 3 2 4 4 3 2 1 1 3 4 5 5 6
18 17 16 16 16 16 15 15 15 14 14 13 12 12 12 12 11 11 11 10 10 10 10 9 9 9 9 9 11 12 11 11 11 11 11 10 10 9 9 8 7 7 7 7 7 7 6 4 2 2 1 2 3 2 2 3 1 1 2 5 6 7 6 2 0 0 0 1 2 3 4 4 5 3 4 2 2 4 2 2 1 1 1 2 4 5 5 5
19 18 17 17 17 17 16 16 16 16 15 14 13 13 12 12 12 11 11 10 10 10 10 10 9 10 8 8 13 14 12 12 12 12 13 13 12 12 11 11 11 10 9 8 8 7 7 5 3 2 3 3 2 2 4 4 0 1 0 3 6 7 3 2 1 1 2 2 3 2 4 3 7 4 3 1 3 4 1 1 1 1 1 1 3 4 5 5
20 19 18 18 18 17 17 17 17 17 16 15 14 13 13 13 12 12 11 11 11 10 10 10 9 9 8 9 13 14 14 13 13 13 13 13 14 14 14 13 12 10 9 8 8 8 6 4 3 3 4 3 4 5 3 3 0 1 1 1 3 4 1 4 1 3 3 1 3 4 5 1 8 4 3 3 3 5 2 1 2 2 2 1 2 2 3 4
20 20 19 19 19 18 17 17 17 17 16 15 15 14 13 13 12 12 11 11 11 10 10 10 9 8 7 9 13 13 14 14 15 15 14 13 13 13 13 11 10 9 8 9 8 7 5 4 4 3 4 5 6 5 1 1 1 0 3 2 2 2 2 2 3 2 2 1 2 4 5 1 8 6 3 3 2 4 3 2 3 3 2 2 1 1 2 3
20 20 20 20 19 19 18 18 18 17 16 16 15 14 14 13 12 12 11 11 10 10 10 9 9 7 5 8 12 12 13 13 13 13 14 14 14 12 10 9 9 9 8 8 7 6 5 6 5 4 5 5 4 3 2 3 2 2 3 4 2 3 3 1 3 2 2 1 1 2 5 4 5 6 3 3 3 3 4 4 4 3 3 3 3 3 3 4
21 21 21 20 20 19 18 18 17 17 17 16 15 14 13 13 12 11 11 10 10 10 9 7 7 7 7 9 11 13 15 13 12 11 11 12 13 11 10 10 10 9 7 6 6 6 7 7 6 4 3 2 2 3 2 4 5 2 2 3 3 3 4 2 2 2 2 2 3 2 5 8 3 7 3 3 4 3 4 5 3 3 3 4 4 5 5 5
22 21 21 21 21 20 19 18 17 17 17 16 15 14 13 12 11 11 10 11 10 7 7 8 6 3 7 12 13 13 13 12 12 12 11 12 12 12 11 10 10 9 8 7 7 7 7 5 3 2 2 2 4 5 5 5 5 3 2 3 3 3 5 5 2 1 1 2 4 3 6 10 5 7 6 4 4 3 3 4 3 3 3 4 5 5 6 6
22 21 21 20 20 20 19 19 18 17 17 16 14 13 11 10 9 10 11 11 10 6 4 9 12 5 3 8 11 12 10 9 10 12 12 13 13 13 12 9 10 11 9 7 6 7 6 4 2 3 4 6 7 9 9 5 3 4 3 4 5 5 6 5 2 2 0 4 7 8 9 11 11 3 7 4 4 3 3 3 2 2 3 3 5 5 6 6
21 21 20 20 20 19 19 19 18 17 16 15 14 12 9 6 5 7 11 15 16 15 11 9 13 12 5 4 8 10 9 9 10 11 13 13 14 13 11 10 11 10 7 5 4 6 5 4 5 7 7 8 10 12 9 2 2 1 2 4 6 7 7 5 0 3 1 4 6 8 8 11 13 3 6 4 3 4 3 2 2 2 2 2 4 5 6 7
21 21 21 20 19 18 18 18 18 18 16 15 15 12 8 8 5 2 7 12 16 19 19 17 16 15 12 9 9 9 9 9 10 12 13 14 14 11 12 12 9 6 4 4 5 4 5 6 10 9 3 2 5 8 6 2 2 3 4 5 6 7 7 4 1 2 2 3 5 4 6 11 10 1 5 3 3 3 2 2 2 2 2 2 3 5 6 7
21 21 21 20 19 17 16 17 18 18 17 16 16 14 10 10 10 6 5 7 11 15 18 20 21 20 19 16 12 11 10 8 9 14 15 16 17 12 11 12 7 5 5 6 4 3 5 8 11 6 4 4 2 2 5 6 6 5 4 5 6 5 4 4 2 1 2 3 4 1 5 10 5 4 4 3 3 3 3 2 2 2 2 2 3 5 7 8
21 21 20 19 18 15 14 15 17 18 17 17 17 16 12 10 9 8 6 6 10 15 17 21 24 25 25 22 18 17 14 10 10 16 18 19 19 14 13 11 6 4 6 8 8 5 5 6 8 4 6 5 2 3 5 4 5 5 5 6 7 2 1 5 2 3 2 2 3 3 6 10 3 5 4 4 4 4 4 3 3 4 3 4 6 8 9 9
21 20 18 18 16 14 13 14 16 17 17 18 17 16 13 11 9 6 5 4 7 11 17 21 22 25 27 23 21 20 18 16 13 16 21 22 20 14 12 10 6 5 8 11 11 9 5 1 2 6 7 8 6 5 6 5 5 6 7 8 8 3 5 8 1 1 3 2 1 3 7 8 3 3 3 4 4 4 4 4 4 4 5 7 8 10 12 13
19 19 17 16 13 13 14 14 17 18 18 18 16 14 13 11 9 4 2 4 6 6 11 16 18 21 25 23 19 18 18 18 17 17 21 26 23 13 7 8 7 7 10 9 7 9 6 4 6 6 5 7 8 6 7 7 6 5 8 11 11 9 9 7 1 2 5 3 2 2 6 3 2 3 4 4 4 4 3 4 5 4 5 6 7 10 13 16
17 17 18 16 13 15 16 16 18 19 18 17 14 14 13 10 8 4 1 2 5 4 6 10 11 12 16 18 19 17 10 11 17 20 20 25 26 15 6 7 4 5 7 6 3 5 2 4 5 5 5 7 7 7 6 7 6 5 4 7 10 10 7 5 4 3 4 2 1 1 5 3 1 2 5 5 5 5 4 4 5 5 6 7 8 11 15 18
17 18 19 18 18 21 20 17 19 20 17 14 14 16 14 11 9 5 2 4 6 5 8 8 9 9 11 15 23 17 3 5 14 17 21 25 24 16 9 7 4 2 5 5 3 2 4 5 3 4 6 6 6 6 6 9 7 3 1 2 6 8 7 7 7 6 3 2 1 3 2 4 5 2 4 5 5 5 5 6 6 7 7 8 10 14 17 20
20 21 20 21 24 26 24 20 20 20 16 10 13 17 15 15 12 7 2 5 3 6 6 6 8 10 13 19 24 13 3 8 9 10 21 24 20 13 8 8 7 5 6 5 6 1 3 6 6 8 7 6 6 2 7 12 7 1 2 2 3 4 5 5 5 4 1 2 4 4 4 3 6 2 3 3 4 5 7 8 9 10 10 11 13 15 18 21
21 23 22 19 21 24 23 22 21 18 13 12 16 18 18 18 11 5 1 4 3 5 4 7 9 9 14 18 15 6 5 5 2 7 17 18 17 9 4 7 7 6 5 4 5 1 1 3 5 8 6 5 3 3 3 9 5 3 5 5 6 4 4 3 3 3 2 3 7 6 8 5 5 3 3 2 4 6 8 8 9 12 13 12 14 17 20 21
22 23 23 19 20 22 21 23 22 16 14 17 20 20 21 17 8 4 3 4 3 4 4 7 7 7 14 13 5 2 4 1 5 12 12 9 12 6 3 6 5 4 3 3 3 1 3 2 1 4 3 3 6 5 3 1 3 7 7 5 6 5 4 2 1 1 2 5 5 2 6 5 4 3 4 3 1 4 8 9 9 12 14 15 16 19 21 22
23 23 25 24 24 26 24 26 25 18 18 21 22 24 21 9 2 5 6 1 0 3 5 4 3 7 14 10 4 4 3 2 7 12 8 5 8 6 6 6 4 3 2 3 3 1 1 1 1 3 4 7 7 5 5 4 3 4 3 4 5 3 3 2 2 2 5 5 1 2 1 4 5 3 1 2 1 3 8 10 12 16 17 17 19 22 23 23
25 24 27 28 28 28 28 27 25 21 22 23 26 26 16 4 2 7 4 3 1 4 5 4 3 7 10 5 2 5 4 2 6 7 5 5 6 7 6 6 6 4 4 7 5 2 3 4 1 2 6 7 6 5 4 2 2 2 3 6 5 3 3 3 3 3 5 2 2 2 2 4 6 5 1 3 3 2 4 7 15 21 21 20 22 25 25 25
27 26 28 29 29 31 30 26 25 25 24 24 27 21 7 3 8 9 7 4 1 1 4 4 3 5 8 5 2 4 2 2 6 4 2 3 5 7 4 2 4 2 2 6 5 3 3 2 4 4 4 8 10 6 4 4 5 6 5 6 5 4 3 4 3 2 3 1 2 1 2 3 4 4 1 3 4 1 1 4 13 21 22 24 27 27 27 26
29 27 28 28 28 30 29 27 28 27 26 28 25 12 3 8 10 7 10 6 1 3 3 4 6 6 7 4 3 6 3 2 7 5 3 4 5 7 6 5 5 1 2 4 4 6 5 3 6 6 3 9 12 4 2 5 7 5 2 1 3 3 3 3 3 2 1 2 2 1 2 3 3 0 2 2 2 0 2 5 12 18 21 25 28 28 28 28
29 28 29 28 29 30 29 31 32 29 31 30 17 6 7 12 8 5 8 6 2 2 3 4 7 7 6 2 1 5 3 1 6 5 4 6 6 7 7 7 8 5 3 5 3 4 5 3 2 2 2 6 8 1 3 5 5 2 1 0 3 2 1 1 1 1 2 0 2 3 3 2 1 1 1 1 1 1 2 5 12 16 20 25 27 28 29 29
29 30 30 30 34 33 30 35 35 33 37 29 10 7 12 10 5 4 5 5 5 6 7 4 4 5 5 3 3 6 3 1 6 6 4 5 5 5 4 5 10 10 7 6 3 3 3 1 2 2 2 1 1 1 1 0 3 3 2 4 2 1 1 2 0 2 1 4 3 4 4 2 1 2 3 2 1 3 3 6 11 14 18 23 27 30 32 31
31 32 33 35 37 34 32 38 37 37 38 23 7 10 10 6 4 4 3 4 6 11 10 5 6 7 7 5 5 8 5 3 6 6 5 4 4 6 6 5 9 14 11 5 1 2 3 1 2 1 1 2 1 3 4 4 2 4 4 4 3 1 1 1 2 1 2 5 3 4 7 5 4 3 3 4 5 6 7 8 9 12 17 22 27 32 33 32
34 35 36 39 38 34 35 39 39 41 32 13 10 14 7 3 3 3 4 4 6 10 8 8 7 6 7 7 6 10 9 6 7 6 6 5 4 8 11 6 8 16 15 6 1 2 3 2 2 1 0 1 0 3 4 3 3 1 1 2 2 2 2 2 2 2 3 5 3 3 5 5 6 4 4 7 10 10 10 9 9 14 20 23 27 33 34 33
38 33 31 38 40 35 36 41 42 40 23 6 12 14 5 3 3 4 7 5 3 8 8 8 7 3 5 7 5 10 11 8 9 8 6 5 4 7 11 6 6 12 15 10 3 0 1 2 2 2 1 1 1 4 6 5 2 2 1 2 0 2 2 2 2 1 2 4 3 2 3 4 6 6 9 12 12 12 12 10 12 17 22 25 30 36 37 36
41 26 18 31 41 36 37 43 40 28 12 6 11 8 1 3 2 4 8 5 2 4 4 5 7 4 5 5 3 6 8 7 9 7 5 6 5 5 8 6 4 5 7 7 3 1 2 3 3 3 0 2 4 4 5 6 5 4 5 5 3 1 0 1 1 1 1 3 3 4 4 3 3 2 5 6 5 8 12 11 12 17 23 29 34 38 40 40
38 17 11 25 36 37 40 37 25 12 6 7 8 5 2 3 2 3 6 4 2 2 1 1 4 3 3 4 3 5 6 6 7 5 4 7 5 3 5 5 6 8 6 4 4 4 3 3 3 4 3 5 3 0 1 2 2 3 6 7 7 5 3 3 4 2 0 3 2 3 5 1 3 2 2 2 3 2 8 9 10 16 23 29 34 38 40 40
31 10 10 22 29 38 40 23 9 6 7 7 6 5 6 4 2 4 4 4 2 2 2 2 1 2 2 2 2 3 5 4 6 6 4 5 4 1 3 4 8 13 10 4 3 3 2 2 3 3 3 2 1 1 1 2 2 1 2 3 5 5 6 7 6 3 2 2 1 1 4 2 2 2 3 3 4 4 5 8 9 11 16 21 28 34 35 36
27 12 12 21 29 39 33 10 4 7 5 3 4 6 8 6 5 6 5 5 3 1 2 1 1 1 2 1 1 3 4 3 5 4 2 2 2 0 1 5 9 11 7 2 3 5 3 2 4 3 1 1 1 1 2 1 1 2 2 1 3 4 4 4 3 2 3 5 3 2 5 2 1 1 2 3 4 3 4 9 9 7 10 16 22 28 31 32
19 12 14 25 35 41 27 6 6 12 7 3 4 5 6 6 6 8 7 7 5 3 3 2 1 2 2 2 2 2 2 2 2 2 0 1 1 1 1 7 10 6 2 1 4 8 7 3 5 5 3 3 3 4 4 3 3 3 2 3 3 2 4 2 2 2 4 7 8 7 7 3 2 0 1 1 3 2 3 7 9 8 9 15 20 25 30 32
13 8 9 23 33 31 18 5 6 10 9 8 7 6 6 4 4 7 7 6 5 4 3 2 3 4 3 2 2 1 1 1 1 2 1 1 1 2 3 5 8 4 2 1 2 8 7 2 5 7 7 8 7 5 5 4 3 2 1 4 4 5 8 4 2 4 6 5 9 9 7 3 3 2 2 1 2 2 3 5 10 12 13 15 19 26 32 35
11 4 4 11 17 14 11 8 7 6 9 10 6 6 8 5 2 4 6 4 3 4 3 2 4 5 3 3 3 1 0 1 1 2 2 2 2 1 3 3 5 5 5 4 4 5 3 1 3 5 4 3 2 1 2 3 4 5 4 6 7 7 9 6 4 6 5 4 6 9 7 5 5 5 4 3 3 3 3 5 10 14 16 17 19 23 30 36
8 5 6 7 6 5 5 8 8 5 8 12 6 4 10 8 2 2 3 2 4 6 4 3 2 3 4 5 5 3 2 2 2 2 2 2 1 1 1 4 5 4 4 4 5 5 2 1 3 3 4 2 3 2 2 2 4 6 6 8 9 9 9 10 10 7 5 4 7 6 9 9 8 8 8 6 5 4 4 7 11 13 15 17 19 20 24 31
7 5 11 14 8 4 5 10 14 10 9 12 7 4 9 9 5 5 3 2 5 6 3 1 2 5 7 8 5 4 5 4 2 2 2 1 1 1 2 4 5 4 3 3 3 4 2 2 2 2 3 2 3 2 3 3 2 3 6 9 11 12 12 13 13 7 6 8 10 5 11 11 8 8 9 7 7 6 7 10 11 12 13 15 16 18 21 26
8 5 9 14 7 4 6 12 17 12 9 11 7 5 11 13 10 6 3 4 6 5 4 4 5 8 9 8 4 5 7 5 4 4 3 2 2 1 1 1 2 3 4 3 2 2 2 1 2 3 3 1 2 1 0 2 1 2 6 9 10 12 13 12 12 9 8 13 13 4 7 12 6 9 7 7 8 8 9 11 12 12 13 14 15 19 22 25
10 6 9 10 5 5 10 14 14 9 7 8 7 6 10 13 12 6 3 5 6 6 6 5 7 10 10 9 7 5 5 5 4 4 5 4 2 1 1 1 1 2 3 2 1 1 2 1 3 2 3 1 0 1 2 1 1 5 11 12 8 8 9 11 12 10 10 13 12 9 12 12 5 10 7 7 10 10 10 12 13 13 14 15 17 21 23 25
10 8 12 12 5 4 8 9 8 7 6 7 8 7 8 12 12 8 3 4 4 7 10 9 9 10 9 9 8 5 6 8 6 5 9 8 5 4 4 3 4 3 1 1 1 1 2 2 3 2 3 2 0 1 2 2 1 9 15 13 10 9 9 12 12 10 11 11 9 9 12 10 4 7 7 8 12 12 11 12 14 15 16 17 19 20 21 23
11 10 13 13 5 3 6 4 4 6 5 6 7 6 6 10 12 10 5 3 3 8 15 14 11 9 7 8 11 10 10 10 6 5 8 8 6 8 8 7 7 7 4 4 2 1 3 3 2 2 3 1 2 0 3 2 2 10 11 8 14 15 12 11 11 12 12 10 9 10 9 5 4 6 7 9 10 10 11 14 17 17 16 17 19 19 19 21
Wind_Direction
150 149 147 147 150 151 150 148 148 148 148 149 150 152 159 164 162 160 159 161 165 169 180 198 237 278 313 323 326 329 334 335 330 325 323 319 315 318 104 101 80 63 44 15 359 340 336 347 360 9 12 29 47 61 70 54 42 35 53 227 116 159 138 160 178 162 104 85 132 3 343 314 325 318 323 317 280 270 300 314 346 65 190 255 290 299 304 312
156 152 151 153 156 157 155 154 155 156 157 156 157 163 173 177 174 177 177 183 191 198 218 243 270 297 314 317 322 324 332 334 328 329 335 342 98 119 115 101 76 50 31 20 7 342 330 343 3 18 29 58 66 70 75 49 38 51 111 309 128 140 100 162 170 148 191 15 11 311 316 293 312 314 324 316 294 297 307 310 106 104 125 279 308 308 316 347
177 168 164 166 165 166 165 166 167 168 169 169 176 181 189 199 199 202 206 214 223 234 249 268 283 299 307 314 320 322 333 335 336 11 63 106 119 120 116 98 63 32 18 13 6 351 342 353 16 35 60 79 78 84 82 49 40 67 222 315 118 142 175 205 206 188 228 294 311 295 295 283 289 298 306 310 303 298 316 1 26 81 2 314 328 345 351 20
211 203 197 197 193 192 191 191 189 189 192 190 195 202 207 215 219 223 229 233 243 253 261 273 284 296 305 313 317 320 334 336 13 97 106 121 125 126 122 81 28 8 5 5 1 357 360 13 49 62 82 86 71 87 78 40 45 147 251 39 108 157 224 201 208 219 234 259 271 281 288 275 239 296 294 290 300 304 62 360 324 313 311 314 333 26 2 12
243 240 234 230 230 229 227 224 221 219 218 217 218 223 226 230 235 240 245 248 254 260 267 277 285 295 302 309 311 318 330 338 118 119 120 132 147 165 245 311 331 342 351 355 353 354 22 53 67 77 76 75 60 70 86 54 59 155 128 63 119 166 234 150 202 237 238 247 254 254 273 287 276 284 266 248 289 341 341 309 293 291 293 301 331 357 341 321
252 253 250 249 247 247 248 246 243 240 238 239 240 241 244 247 250 254 255 258 263 266 270 276 285 292 298 302 304 310 314 299 151 172 255 273 267 271 281 292 307 319 331 338 340 337 25 67 65 79 68 72 44 15 88 102 65 251 129 139 169 197 251 290 241 263 256 246 246 254 278 286 272 264 194 216 268 300 307 306 298 286 278 298 341 320 311 312
256 257 257 255 253 252 254 253 252 252 250 250 250 251 253 255 257 261 263 265 266 270 273 276 283 289 293 297 299 300 290 280 272 266 274 272 266 269 276 282 292 301 312 324 325 297 285 57 73 93 90 103 138 104 110 126 162 281 182 152 200 216 244 273 271 277 271 260 262 274 281 270 261 264 165 163 244 265 290 339 46 87 70 337 302 303 308 319
258 260 261 260 258 256 254 255 255 254 253 253 253 254 256 258 258 260 264 265 266 267 270 274 279 284 289 293 297 298 285 280 279 275 276 270 262 262 267 274 281 289 297 304 299 271 260 256 154 118 96 71 147 152 144 191 183 237 274 136 208 229 251 280 280 281 278 274 277 275 270 260 254 231 136 107 238 244 214 124 119 115 132 248 263 288 304 316
260 263 263 263 262 259 256 255 254 253 253 253 254 254 256 257 258 259 260 262 264 265 268 272 276 281 285 287 291 292 281 279 279 276 281 275 266 261 263 270 273 279 285 286 276 253 244 237 204 200 261 135 157 151 159 233 213 157 322 184 266 265 278 288 281 279 277 274 277 267 254 223 172 149 112 69 232 193 158 172 158 164 223 252 296 346 31 33
261 262 263 264 262 260 257 254 253 253 251 251 252 253 253 255 256 257 258 260 261 263 267 270 274 278 280 282 284 277 267 269 276 278 282 277 269 264 263 266 268 271 277 275 255 236 232 222 198 217 277 141 151 136 160 227 18 86 10 290 273 280 287 284 276 274 273 267 258 252 248 130 163 175 106 67 131 154 157 178 179 205 258 318 2 25 33 35
259 260 262 262 261 259 256 254 252 250 250 250 249 250 250 251 253 254 255 257 260 263 266 268 272 274 274 273 254 249 264 267 272 276 274 270 263 260 258 254 255 263 268 264 245 229 230 224 201 253 197 133 143 140 171 180 66 77 328 287 266 279 283 277 275 272 269 262 240 236 226 126 181 203 82 59 132 159 177 188 191 247 317 5 18 26 27 26
257 258 258 259 259 257 255 252 250 248 248 247 246 248 247 248 249 251 253 256 259 262 265 267 270 269 272 270 254 255 269 270 270 271 267 262 256 253 250 246 251 267 269 261 246 227 225 216 211 272 230 144 154 162 161 146 135 359 345 300 281 280 277 283 333 190 297 258 191 222 229 162 162 143 71 24 162 151 195 218 184 271 7 28 28 26 27 30
256 255 255 255 255 254 252 249 248 247 246 245 245 245 245 247 247 249 251 253 258 260 264 266 268 270 268 265 264 266 269 268 268 266 260 254 251 249 246 250 260 268 260 246 236 220 218 219 229 235 183 161 154 149 124 115 194 265 82 310 299 286 261 88 62 305 322 260 180 215 263 171 136 113 43 25 180 177 229 217 166 156 94 28 25 23 25 34
253 253 252 251 251 250 249 247 246 245 244 243 243 243 243 244 244 247 250 252 257 259 262 264 265 268 260 258 268 270 267 266 262 255 253 250 249 251 251 255 258 256 244 230 224 218 222 229 230 207 178 161 131 135 127 107 58 296 256 234 289 295 192 118 57 306 297 229 177 211 270 212 141 133 28 44 167 193 209 162 144 139 125 74 34 28 24 37
249 250 250 249 249 248 246 245 243 243 242 240 241 241 241 241 243 245 248 251 255 257 260 262 262 263 258 262 267 268 265 260 256 250 247 246 248 251 250 247 241 231 224 218 216 220 222 212 202 163 138 140 140 148 178 230 132 55 272 237 183 270 250 127 70 338 278 97 141 221 266 262 144 135 33 46 143 175 177 148 133 134 125 121 93 70 62 63
246 247 247 248 248 246 244 242 242 241 239 238 238 238 238 240 241 242 247 250 253 256 257 258 257 252 251 263 262 262 260 252 250 247 242 242 243 241 236 226 219 216 214 214 214 214 203 185 167 140 136 144 156 180 236 254 229 160 246 264 224 237 271 310 87 30 322 105 143 242 272 283 142 129 51 71 140 167 151 135 128 132 128 129 130 118 111 109
242 243 245 247 246 245 242 239 238 236 235 235 234 235 236 236 238 242 245 247 250 250 250 251 252 252 250 256 257 255 253 246 243 241 236 236 232 228 221 209 203 205 202 196 187 180 176 164 151 146 142 135 161 183 226 250 247 188 191 253 256 238 263 278 140 93 2 240 226 212 251 273 174 134 101 93 141 156 135 128 125 123 123 127 130 131 133 136
238 240 242 243 244 243 240 238 234 230 231 230 230 230 231 235 239 242 244 244 243 241 246 232 217 259 252 236 240 247 248 241 237 235 229 224 218 213 210 207 200 190 172 163 164 162 159 144 152 192 156 164 176 184 218 245 266 268 221 242 255 228 237 260 261 113 49 249 240 222 236 266 245 142 110 95 133 144 131 126 122 114 116 126 128 135 139 141
236 237 238 238 239 238 236 234 229 227 226 224 225 224 227 235 240 245 245 234 217 202 230 210 197 213 246 215 225 237 240 229 224 227 221 213 207 201 202 202 189 173 159 164 170 160 157 134 157 226 208 197 194 201 225 249 301 293 261 261 263 251 243 249 268 85 9 265 250 249 253 265 264 186 109 97 110 118 130 121 112 107 106 118 124 133 137 138
233 234 233 233 233 232 231 229 227 223 220 219 217 213 215 215 226 247 236 229 227 226 237 225 210 218 226 216 221 220 218 216 216 215 212 208 200 192 189 178 169 172 171 174 162 157 178 186 201 223 219 204 202 211 231 292 32 274 254 254 253 255 258 256 238 100 98 278 255 249 258 263 264 252 98 111 129 117 126 121 101 94 96 105 119 133 137 137
229 230 229 230 229 228 227 225 224 220 216 216 210 204 203 197 199 233 227 237 248 243 244 246 235 228 232 238 230 216 207 206 209 206 204 200 190 181 178 169 165 183 177 122 108 141 185 212 222 226 216 177 206 216 231 258 216 233 249 254 251 246 256 270 270 114 119 265 260 239 258 262 256 211 88 121 158 122 98 116 105 85 97 105 113 134 140 134
225 227 228 229 228 226 224 221 222 218 212 210 208 206 208 211 218 236 254 266 264 252 245 243 240 236 235 234 228 219 203 192 201 201 197 189 185 185 174 174 192 189 141 125 127 155 200 226 231 217 97 91 101 182 213 233 233 232 237 254 258 246 267 273 237 133 153 234 263 278 279 270 246 114 87 99 121 102 86 108 122 114 115 121 127 135 137 135
225 226 226 226 225 224 224 222 221 218 211 208 211 211 210 218 224 236 261 284 273 259 246 239 238 236 233 231 228 218 202 200 205 200 196 188 186 191 179 179 199 159 147 182 192 191 204 231 234 181 129 157 183 150 177 216 229 224 222 243 251 215 270 262 194 115 172 228 294 317 292 274 223 123 102 88 98 106 102 112 133 147 152 150 153 148 144 144
226 225 223 221 220 223 228 225 221 220 214 211 216 214 213 218 220 239 264 278 277 259 246 241 236 235 232 230 228 217 212 219 215 203 201 193 183 186 188 182 171 161 187 201 205 218 218 130 134 152 162 202 215 176 183 220 232 218 218 237 251 232 234 248 275 49 220 203 258 277 281 270 218 173 149 113 124 126 120 139 143 157 162 153 154 155 153 148
226 222 220 217 216 225 234 228 220 220 218 217 217 211 213 218 215 233 270 279 271 238 239 237 231 234 230 226 223 212 215 225 221 213 205 197 188 175 176 180 181 204 200 189 208 239 240 113 123 143 162 202 216 209 201 218 244 235 217 226 241 248 242 238 229 312 260 229 163 251 269 250 150 185 170 145 161 149 148 170 160 157 160 154 153 155 152 145
230 220 209 208 214 220 223 223 222 224 224 221 212 199 204 205 194 194 139 298 267 188 185 209 209 220 216 211 202 191 212 228 217 216 204 199 197 184 168 169 188 228 177 153 216 252 230 131 143 170 174 179 209 232 198 191 239 261 219 213 226 237 238 221 193 206 258 273 100 229 267 264 221 190 148 154 174 158 163 180 173 173 168 168 165 157 151 143
231 227 213 201 203 210 212 218 222 221 223 219 202 191 188 174 160 145 123 284 264 163 144 172 179 186 189 185 178 175 208 182 186 204 196 194 197 195 202 177 160 211 138 135 229 227 149 149 154 183 185 182 211 235 183 177 222 252 83 179 202 209 210 201 197 208 260 325 192 193 239 278 270 251 119 153 171 163 178 185 181 182 177 174 170 161 153 145
221 227 228 207 204 217 219 220 221 217 217 204 187 184 170 158 151 133 161 264 255 124 129 158 161 170 169 167 171 167 123 139 156 192 188 188 190 192 219 203 173 167 152 183 225 222 139 173 180 172 180 204 215 227 162 179 215 271 78 119 155 173 185 178 191 216 268 310 248 199 153 255 259 213 114 157 197 201 190 188 187 183 179 176 172 164 155 146
218 220 228 214 213 229 224 216 218 215 206 177 173 175 159 153 151 123 188 247 175 105 113 150 148 152 150 156 172 161 119 137 119 166 172 181 185 183 218 198 168 144 153 228 244 324 67 192 187 169 181 205 178 36 161 191 205 137 125 105 95 90 101 137 198 194 141 240 254 206 169 227 265 204 170 176 232 221 187 184 187 179 179 179 174 167 157 149
222 216 220 216 214 222 217 210 212 205 183 169 169 166 154 152 151 147 208 233 180 103 103 146 148 147 147 148 179 177 136 98 102 137 148 166 179 172 120 142 138 135 152 289 269 75 54 60 155 180 194 142 111 60 26 125 129 141 145 115 99 92 97 110 161 148 198 233 251 194 175 224 267 223 198 176 230 200 169 171 178 177 182 182 177 170 161 155
223 213 213 216 213 213 210 207 205 192 173 170 167 160 155 149 132 191 204 244 37 123 120 141 140 154 160 158 175 168 137 74 131 146 146 148 164 149 130 141 136 142 187 243 226 149 106 166 181 184 156 119 110 84 49 55 121 157 169 144 131 120 140 161 144 175 241 228 145 56 148 220 233 232 163 131 126 183 171 169 172 179 184 182 179 174 166 160
222 213 211 214 214 214 213 208 201 185 174 171 166 162 157 142 228 223 204 80 129 185 149 152 169 175 176 162 111 145 129 124 157 161 152 155 173 171 179 187 165 168 221 215 197 145 196 205 145 141 161 159 146 111 91 85 165 210 180 165 179 172 177 216 187 194 244 223 81 53 158 212 237 249 237 146 152 188 185 173 174 177 180 180 180 176 169 165
219 214 214 215 213 215 216 210 197 186 180 171 166 164 150 186 215 220 202 162 184 172 105 118 138 156 166 154 129 149 119 132 166 168 145 159 189 190 212 237 181 214 243 186 183 181 205 203 156 165 178 190 188 163 155 170 183 198 182 176 197 182 194 225 196 228 265 169 71 26 190 215 242 259 265 129 120 132 185 179 178 176 176 179 180 177 172 169
215 213 216 216 216 215 213 204 192 188 183 170 164 160 156 215 217 198 192 196 33 57 75 102 113 124 161 168 166 166 149 154 163 159 161 168 190 201 210 219 213 261 70 157 193 193 217 246 174 174 160 181 193 198 142 140 161 192 180 194 224 199 227 238 204 245 285 104 116 157 214 212 193 124 19 45 57 82 217 195 184 179 177 179 180 179 176 175
212 211 215 216 216 214 210 200 190 190 185 170 161 167 193 217 221 179 186 181 115 96 78 97 120 137 183 204 159 189 210 206 163 158 174 180 196 202 195 197 199 194 163 185 197 183 228 271 121 72 41 167 186 183 74 119 148 167 64 236 252 245 234 291 338 354 44 351 201 186 235 251 167 118 84 40 17 178 208 199 188 184 182 182 183 184 182 181
209 208 212 215 214 211 206 197 190 192 186 171 159 201 205 220 205 165 186 164 153 143 119 127 144 151 188 184 186 209 238 125 159 175 192 196 224 209 188 197 193 194 196 188 171 164 211 264 59 37 36 81 203 150 100 194 157 138 165 191 209 338 64 130 182 71 74 268 235 173 225 233 144 193 148 125 205 192 197 198 191 188 185 187 190 190 188 186
204 206 210 212 213 210 202 194 191 195 189 176 187 210 209 224 185 157 173 142 143 145 143 182 189 169 184 190 191 193 186 152 168 188 185 179 221 195 187 224 198 197 213 217 208 204 195 148 62 36 101 58 352 117 81 14 72 138 188 181 134 359 344 198 250 143 176 255 254 178 219 209 181 206 141 148 201 208 203 194 185 186 187 193 197 196 192 191
205 206 211 213 214 210 200 192 193 196 190 181 217 217 217 213 170 125 142 130 132 155 180 214 192 173 187 190 185 179 180 178 168 184 183 179 218 179 173 205 197 197 209 212 240 232 204 180 107 61 89 97 172 155 112 46 15 52 183 140 114 218 195 161 234 241 211 252 267 192 211 217 205 194 157 184 204 204 196 185 182 191 193 196 200 199 196 195
206 203 212 216 213 209 200 193 195 196 189 190 217 216 219 183 147 120 150 141 125 170 201 217 203 200 189 180 163 167 185 186 162 174 193 187 209 179 173 188 188 194 199 189 187 189 178 227 184 126 5 69 207 219 185 162 97 35 111 140 36 270 221 164 180 231 227 251 274 232 204 212 209 191 178 192 201 190 182 184 194 197 195 196 200 199 198 198
201 198 214 213 208 207 199 195 198 197 191 210 214 212 191 161 145 138 159 147 117 181 209 215 208 209 182 175 159 165 190 195 171 182 203 180 185 191 189 189 154 168 180 175 201 181 130 227 201 128 249 209 189 212 205 178 159 157 172 173 174 168 358 254 201 108 257 250 255 267 268 208 165 177 186 188 197 185 182 188 194 194 196 199 201 200 199 200
195 201 216 203 203 203 195 192 199 201 203 221 223 230 208 169 143 152 170 164 138 162 118 148 195 201 173 179 190 173 179 188 182 192 206 190 202 218 191 185 155 143 138 147 203 201 172 201 176 152 188 202 193 349 303 253 194 176 184 181 181 172 156 209 218 156 280 267 245 265 283 247 119 33 350 21 360 228 195 191 189 193 199 202 202 203 203 202
192 205 203 190 196 196 189 186 194 198 213 219 214 205 180 160 163 170 176 176 153 118 103 104 152 171 169 184 191 168 163 174 189 198 210 196 197 162 160 174 163 157 153 154 186 167 121 127 150 151 179 196 297 356 223 272 311 306 237 188 184 185 177 206 224 180 161 237 4 318 281 293 87 25 350 336 323 294 221 198 192 197 201 202 205 206 206 205
187 191 179 179 189 191 187 183 185 193 220 213 178 176 169 167 179 174 177 187 173 120 136 142 103 151 180 177 143 165 169 178 186 190 212 185 154 43 177 164 161 162 163 159 150 142 134 156 163 144 82 81 359 226 190 275 230 211 251 184 189 204 191 216 229 154 189 197 158 217 245 229 133 53 353 309 283 283 232 204 196 193 200 207 210 209 208 210
175 161 158 171 180 186 186 184 191 198 209 178 168 176 168 171 178 177 186 190 177 157 152 165 174 162 165 134 121 154 176 190 190 178 230 159 151 354 78 151 160 161 165 177 166 167 171 180 167 157 147 170 194 204 198 199 204 213 205 171 193 164 117 90 88 122 240 203 175 220 245 190 134 258 356 309 250 234 217 206 196 190 203 214 217 214 212 213
154 123 148 172 178 185 191 192 186 197 202 189 189 188 173 174 188 179 177 171 164 157 151 160 146 128 121 109 88 77 165 181 184 164 131 100 93 4 24 143 159 136 81 94 158 170 177 197 179 179 189 194 198 207 197 171 169 196 173 178 196 167 156 159 148 195 230 183 172 220 243 172 142 233 245 213 217 196 173 188 192 198 214 222 221 218 214 213
160 130 137 173 186 201 216 210 189 191 198 191 191 191 183 189 205 161 147 141 146 135 111 100 119 111 105 119 108 103 308 29 63 142 144 126 128 13 20 96 126 103 94 101 111 142 151 312 222 221 233 205 164 158 148 108 141 185 187 180 190 188 183 186 198 210 201 160 202 221 222 226 206 182 185 196 206 204 169 176 188 197 213 222 222 221 217 214
174 175 159 159 189 226 234 213 198 188 188 186 182 180 180 179 166 140 143 137 150 138 89 35 102 144 159 152 142 157 161 88 67 125 127 109 119 145 68 79 84 83 87 94 104 116 111 248 219 244 278 296 46 86 171 152 173 193 191 188 191 187 186 197 214 210 142 171 242 190 167 233 233 174 176 192 197 213 192 192 198 199 212 221 222 223 222 220
183 177 167 165 168 197 215 203 193 181 173 179 177 160 171 174 174 174 167 135 152 154 123 55 209 197 175 161 147 146 153 142 148 161 139 115 108 53 23 39 43 49 66 68 81 102 129 224 178 179 248 295 36 70 182 181 190 206 201 200 195 186 187 201 214 205 145 208 249 149 155 229 238 172 184 187 182 201 199 202 211 210 218 226 226 228 229 227
166 134 157 167 165 167 170 175 180 180 172 170 167 168 178 181 182 175 145 136 160 189 190 171 191 192 180 174 160 151 164 163 167 177 163 139 141 99 38 43 29 35 60 68 46 83 154 195 115 158 203 108 43 5 174 174 202 257 231 218 201 188 192 205 213 207 199 232 255 236 213 245 216 161 190 203 195 202 197 202 211 211 220 230 233 236 236 234
169 150 148 153 123 109 132 145 162 174 171 168 175 187 185 182 179 164 151 163 160 183 201 185 176 178 179 182 177 171 172 148 134 167 163 148 152 158 174 171 131 41 49 87 68 71 186 176 84 126 192 160 89 6 35 76 222 246 246 237 210 181 190 213 224 219 218 239 255 249 251 258 195 157 182 195 192 195 196 205 212 217 229 236 238 240 241 241
176 160 148 144 114 108 133 137 154 163 172 186 187 179 179 186 176 149 156 212 169 164 184 179 163 165 174 183 184 183 164 140 120 138 157 164 175 173 186 183 152 138 106 150 146 113 182 180 69 99 201 195 97 135 129 90 271 259 256 235 190 179 197 212 222 219 216 229 239 238 249 255 185 153 174 182 186 198 206 213 222 231 239 241 243 245 245 246
169 154 151 149 134 140 145 123 148 170 178 188 182 169 171 181 171 149 145 214 204 181 180 170 156 156 169 188 190 185 171 158 147 151 167 185 198 191 198 193 166 162 165 164 153 113 164 165 116 165 204 210 4 182 148 101 278 264 259 204 179 192 203 210 222 221 214 216 223 231 243 242 148 153 184 194 196 206 216 223 231 239 243 246 247 247 249 252